Location: Unspecified
(0.0000°N, 0.0000°E)
Time: 00:38:46
(UTC+00:00)

PCSat - Visible Passes

Search period start: 22 January 2018 00:00
Search period end: 01 February 2018 00:00
Orbit: 786 x 794 km, 67.1° (Epoch: 20 January)

Date Brightness Start Highest point End Pass type
(mag) Time Alt. Az. Time Alt. Az. Time Alt. Az.
22 Jan 10.2 19:40:25 10° N 19:49:14 19° SE 19:50:46 10° SE visible
22 Jan 12.5 21:29:05 11° WSW 21:29:05 11° WSW 21:29:52 10° WSW visible
23 Jan 10.2 19:10:01 10° N 19:14:43 31° ENE 19:19:25 10° SE visible
23 Jan 12.1 20:54:22 10° WNW 20:57:50 17° WSW 21:01:19 10° SSW visible
24 Jan 10.7 18:39:58 10° NNE 18:43:50 20° ENE 18:47:42 10° ESE visible
24 Jan 11.5 20:22:28 10° NW 20:26:57 27° WSW 20:31:26 10° SSW visible
25 Jan 10.8 19:51:02 10° NW 19:56:04 41° WSW 20:01:08 10° S visible
26 Jan 10.0 19:19:52 10° NNW 19:25:13 65° WSW 19:30:33 10° S visible
27 Jan 9.5 18:48:57 10° NNW 18:54:20 81° ENE 18:59:44 10° SSE visible
28 Jan 12.8 05:44:01 10° SSE 05:47:22 17° ESE 05:50:41 10° ENE visible
29 Jan 13.4 05:16:12 10° ESE 05:16:27 10° ESE 05:16:42 10° ESE visible
29 Jan 12.7 19:32:29 10° WNW 19:35:43 16° WSW 19:38:58 10° SSW visible
30 Jan 12.1 19:00:29 10° NW 19:04:50 25° WSW 19:09:12 10° SSW visible
31 Jan 11.3 18:28:59 10° NW 18:33:57 38° WSW 18:38:57 10° S visible
